Location: Lombard
(41.8800°N, 88.0078°W)
Time: 12:30:35
(UTC-06:00)

BlueWalker 3 - Pass Details

Date: 21 January 2026
Orbit: 450 x 461 km, 53.2° (Epoch: 11 February)

Event Time Altitude Azimuth Distance (km) Brightness Sun altitude
Rises 17:33:33 0° 205° (SSW) 2,442 6.2 -7.7°
Reaches altitude 10° 17:35:51 10° 193° (SSW) 1,573 4.9 -8.1°
Maximum altitude 17:38:55 28° 133° (SE) 869 2.9 -8.6°
Enters shadow 17:41:34 13° 76° (ENE) 1,428 3.6 -9.1°
